Lid_Strength_Index
6 5 5 5 4 5 7 9 12 7 7 11 14 12 11 8 8 8 9 9 10 11 10 12 11 11 9 8 9 12 12 14 15 13 11 10 11 12 13 15 16 15 16 15
5 5 5 5 5 5 8 11 11 6 7 13 13 10 9 8 8 8 9 10 9 10 11 13 10 9 7 7 9 11 11 15 16 14 13 11 12 11 12 14 15 15 17 15
5 5 5 5 4 4 8 10 11 8 8 10 11 11 10 9 7 8 8 10 10 10 12 11 12 10 7 7 7 5 8 15 14 16 14 12 12 11 11 14 16 15 14 13
5 5 5 5 4 4 7 9 10 9 11 9 10 11 10 10 10 8 9 10 11 12 13 12 12 10 10 8 7 9 11 13 13 13 11 11 11 11 11 12 12 15 13 13
5 5 5 5 4 4 8 10 9 9 10 10 11 11 11 10 9 10 9 11 10 11 12 12 13 12 11 12 10 11 12 13 13 13 10 11 12 10 10 10 12 12 12 13
5 6 6 6 5 5 8 8 8 8 10 11 11 11 10 9 9 8 8 8 11 11 10 9 10 10 10 11 11 12 12 13 14 15 12 12 14 12 10 11 11 11 14 11
6 6 6 6 6 5 5 6 8 10 11 10 10 9 8 9 8 10 7 8 11 8 7 9 10 11 12 11 10 11 13 14 14 16 15 18 12 10 10 11 10 10 10 9
6 6 6 6 6 5 5 5 6 8 10 8 9 9 9 8 8 9 8 7 7 8 11 12 13 13 12 11 9 10 12 14 15 16 17 13 11 11 11 12 12 9 10 9
5 5 5 5 5 5 5 4 4 6 9 10 7 9 9 10 11 10 8 6 7 10 12 13 15 15 14 13 12 10 10 14 15 15 18 19 12 9 7 8 15 8 8 9
4 4 4 4 4 4 4 4 3 5 8 7 8 9 9 8 10 10 9 8 8 10 13 14 15 14 12 14 14 14 14 14 15 15 17 14 9 8 7 15 13 7 8 8
3 3 4 4 4 3 3 4 2 4 6 6 5 5 7 8 9 10 9 9 10 10 12 14 14 14 13 13 12 14 14 15 15 15 18 17 8 8 12 9 7 7 7 7
3 2 3 3 3 3 2 4 2 2 6 7 5 4 3 4 5 7 9 9 10 9 11 12 12 12 12 13 15 11 14 12 13 13 13 8 7 8 6 6 7 7 7 6
2 2 2 3 2 2 2 3 3 2 5 5 5 5 4 3 3 3 8 8 7 8 8 10 10 12 11 14 13 12 10 9 12 11 9 8 7 6 6 5 6 5 5 5
2 2 2 2 2 2 1 2 2 2 4 8 7 4 5 4 4 4 3 5 7 8 9 10 11 11 9 12 11 12 10 9 11 11 9 7 6 6 6 6 5 5 5 5
1 1 1 2 1 2 2 1 1 1 4 9 8 5 3 4 4 5 5 5 7 9 9 10 11 10 10 11 12 13 9 9 11 12 8 8 7 6 5 6 6 5 5 5
1 1 1 1 2 1 1 5 1 0 1 6 10 6 6 6 7 6 7 6 9 9 10 10 9 9 9 11 12 9 9 7 8 9 7 8 6 5 5 5 5 5 5 4
1 2 2 2 2 2 3 5 3 0 0 6 9 10 7 6 7 8 8 8 9 9 10 10 10 9 9 11 12 9 8 6 6 6 6 7 5 6 5 5 4 4 4 4
1 1 2 1 1 1 2 1 1 1 3 4 9 10 8 8 9 9 8 9 10 10 9 9 10 10 10 12 9 9 7 6 6 6 5 5 6 5 5 4 4 5 5 5
1 1 1 1 2 4 3 -1 -1 1 3 8 9 12 12 6 10 9 9 9 11 9 10 10 9 11 12 10 9 8 7 7 7 5 5 5 6 6 5 5 5 5 5 5
1 2 3 6 3 -1 -0 2 5 5 5 5 9 10 10 8 9 10 10 9 11 12 10 9 11 12 9 8 7 8 7 5 5 7 7 6 6 6 5 5 5 4 5 4
2 4 5 2 -1 2 5 8 8 8 10 9 9 9 10 7 10 10 8 10 10 13 11 11 12 12 9 7 6 5 5 5 5 4 4 4 5 5 5 5 4 4 4 4
2 2 2 2 4 6 8 10 9 10 11 8 9 9 9 8 6 9 9 11 10 13 9 11 14 10 7 6 6 5 4 4 4 4 5 4 4 4 4 4 4 4 4 3
1 3 6 7 7 12 12 13 12 12 8 7 9 9 9 7 7 8 9 12 12 8 12 13 11 8 6 6 5 5 4 4 4 4 4 4 4 4 4 4 3 3 3 3
6 7 12 10 11 10 10 10 9 7 7 8 9 9 9 7 9 9 12 10 10 13 14 13 10 7 6 5 5 5 5 4 4 4 4 4 4 4 3 3 3 3 4 3
7 7 12 10 8 8 8 8 9 7 7 8 8 8 7 9 9 11 10 12 14 13 13 10 8 6 6 6 6 6 5 5 6 5 5 4 4 4 4 3 3 3 3 3
6 7 9 7 9 9 9 9 8 7 8 7 7 9 10 10 10 11 13 13 14 12 9 7 6 7 7 6 6 5 5 5 5 5 5 5 5 5 5 4 4 3 3 3
8 8 6 7 8 8 8 8 7 7 7 9 9 11 12 9 12 12 10 12 10 8 7 7 8 7 6 6 5 4 4 5 5 5 5 4 4 4 3 5 5 4 3 3